Regional Weather Roundup
Issued by NWS Raleigh/Durham, NC

Home | Current Version | Previous Version | Text Only | Print | Product List | Glossary On
Versions: 1 2 3 4 5 6 7 8 9 10 11 12 13 14 15 16 17 18 19 20 21 22 23 24 25 26 27 28 29 30 31 32 33 34 35 36 37 38 39 40 41 42 43 44 45 46 47 48 49 50
000
ASUS42 KRAH 291210
RWRRAH
NORTH CAROLINA WEATHER ROUNDUP
NATIONAL WEATHER SERVICE RALEIGH NC
800 AM EDT FRI AUG 29 2014

NOTE: "FAIR" INDICATES FEW OR NO CLOUDS BELOW 12,000 FEET WITH NO
SIGNIFICANT WEATHER AND/OR OBSTRUCTIONS TO VISIBILITY.

NCZ001-053-055-056-065-067-291300-
WESTERN NORTH CAROLINA

CITY           SKY/WX    TMP DP  RH WIND       PRES   REMARKS
ASHEVILLE      MOSUNNY   65  62  90 CALM      30.19  FOG
JEFFERSON      CLOUDY    63  61  96 CALM      30.24R FOG
MORGANTON      MOSUNNY   70  69  96 N5        30.20R
HICKORY        NOT AVBL
RUTHERFORDTON  NOT AVBL
MOUNT AIRY     MOSUNNY   71  60  68 NE9       30.18R
BOONE          NOT AVBL
$$

NCZ021-022-025-041-071-084-088-291300-
CENTRAL NORTH CAROLINA

CITY           SKY/WX    TMP DP  RH WIND       PRES   REMARKS
CHARLOTTE      PTSUNNY   74  65  73 CALM      30.11
GREENSBORO     CLOUDY    71  65  81 NE9       30.14R
WINSTON-SALEM  PTSUNNY   71  63  75 NE9       30.15R
RALEIGH-DURHAM CLOUDY    73  69  87 NE7       30.12R FOG
FORT BRAGG     NOT AVBL
FAYETTEVILLE   MOSUNNY   72  68  87 CALM      30.09R
BURLINGTON     CLOUDY    71  65  81 N7        30.14R
LAURINBURG     MOSUNNY   70  66  87 SW3       30.10R
$$

NCZ011-015-027-028-043-044-047-080-103-291300-
NORTHEASTERN NORTH CAROLINA

CITY           SKY/WX    TMP DP  RH WIND       PRES   REMARKS
ROCKY MT-WILSO CLOUDY    74  70  87 NE8       30.11R
GREENVILLE     CLOUDY    73  72  94 CALM      30.11R FOG
WASHINGTON     PTSUNNY   72  71  95 CALM      30.10R
ELIZABETH CITY NOT AVBL
MANTEO         CLOUDY    75  71  85 NE13      30.10R
CAPE HATTERAS  PTSUNNY   77  74  90 W6        30.08R
$$

NCZ078-087-090-091-093-098-101-291300-
SOUTHEASTERN NORTH CAROLINA

CITY           SKY/WX    TMP DP  RH WIND       PRES   REMARKS
LUMBERTON      CLOUDY    71  68  90 CALM      30.09R
GOLDSBORO      SUNNY     74  73  98 NE2       30.08R
KINSTON        SUNNY     72  70  94 CALM      30.10R
KENANSVILLE    MOSUNNY   70  68  92 CALM      30.10R
NEW BERN       PTSUNNY   77  69  76 CALM      30.10R
CHERRY POINT   PTSUNNY   75  70  84 SW6       30.10R
BEAUFORT       MOSUNNY   78  71  79 W7        30.10R
JACKSONVILLE   PTSUNNY   73  69  87 CALM      30.09R
WILMINGTON     SUNNY     75  69  81 W7        30.09R
$$



USA.gov is the U.S. government's official web portal to all federal, state and local government web resources and services.